Date String (YYYY-MM-DD hh:mm:ss) UTC,Instrument flags,Ambient pressure (hPa),Sample flow (lpm),Bypass flow (lpm),Sample temperature (°C),Ambient temperature (°C),ASC tube jacket temperature (°C),LED temperature (°C),Box temperature (°C),Sample RH (%),Span deviation,Mass concentration (μg/m³),Mass concentration (μg/m³),Mass concentration (μg/m³)
DateTimeUTC,F1_M11,P_M11,Q1_M11,Q2_M11,T1_M11,T2_M11,T3_M11,T4_M11,T5_M11,U1_M11,ZSPAN_M11,X0_M11,X2_M11,X1_M11
2022-03-14 15:00:00,,0829.2,5.00,0.00,23.0,22.3,00.0,32.0,24.8,11.6,0000.0,0008.49,0002.64,0001.69
2022-03-14 15:01:00,,0829.2,5.00,0.00,23.0,22.3,00.0,32.0,24.7,11.7,0000.0,0008.30,0002.63,0001.72
2022-03-14 15:02:00,,0829.2,5.01,0.00,23.0,22.3,00.0,32.0,24.7,11.9,0000.0,0008.12,0002.66,0001.75
2022-03-14 15:03:00,,0829.2,5.00,0.00,23.0,22.3,00.0,32.0,24.8,11.7,0000.0,0007.89,0002.73,0001.78
2022-03-14 15:04:00,,0829.2,4.99,0.00,23.0,22.3,00.0,32.0,24.9,12.0,0000.0,0008.35,0002.77,0001.82
2022-03-14 15:05:00,,0829.2,5.00,0.00,23.0,22.4,00.0,32.0,24.9,11.7,0000.0,0009.15,0002.74,0001.82
2022-03-14 15:06:00,,0829.2,5.01,0.00,23.0,22.4,00.0,32.0,24.9,11.6,0000.0,0009.10,0002.67,0001.79
2022-03-14 15:07:00,,0829.2,4.99,0.00,23.1,22.4,00.0,32.0,24.9,11.7,0000.0,0009.12,0002.55,0001.78
2022-03-14 15:08:00,,0829.4,5.01,0.00,23.1,22.4,00.0,32.0,24.9,11.8,0000.0,0007.90,0002.46,0001.75
2022-03-14 15:09:00,,0829.3,5.01,0.00,23.1,22.4,00.0,32.0,24.9,11.8,0000.0,0007.43,0002.48,0001.74
2022-03-14 15:10:00,,0829.4,5.00,0.00,23.1,22.5,00.0,32.0,24.9,11.8,0000.0,0007.51,0002.48,0001.72
2022-03-14 15:11:00,,0829.4,4.99,0.00,23.1,22.5,00.0,32.0,24.9,11.8,0000.0,0007.54,0002.44,0001.68
2022-03-14 15:12:00,,0829.5,5.00,0.00,23.2,22.5,00.0,32.1,25.0,11.7,0000.0,0007.98,0002.38,0001.65
2022-03-14 15:13:00,,0829.6,4.98,0.00,23.2,22.6,00.0,32.1,25.0,11.7,0000.0,0008.00,0002.31,0001.61
2022-03-14 15:14:00,,0829.5,5.00,0.00,23.2,22.6,00.0,32.1,25.0,11.7,0000.0,0007.99,0002.28,0001.58
2022-03-14 15:15:00,,0829.5,5.00,0.00,23.2,22.6,00.0,32.1,25.1,11.8,0000.0,0007.82,0002.23,0001.54
2022-03-14 15:16:00,,0829.5,5.01,0.00,23.3,22.6,00.0,32.1,25.1,11.8,0000.0,0007.22,0002.19,0001.51
2022-03-14 15:17:00,,0829.5,5.00,0.00,23.3,22.7,00.0,32.1,25.1,11.8,0000.0,0009.00,0002.18,0001.51
2022-03-14 15:18:00,,0829.5,5.01,0.00,23.3,22.7,00.0,32.1,25.2,11.7,0000.0,0009.27,0002.17,0001.51
2022-03-14 15:19:00,,0829.6,5.01,0.00,23.3,22.7,00.0,32.2,25.2,11.8,0000.0,0009.20,0002.17,0001.50
2022-03-14 15:20:00,,0829.6,4.98,0.00,23.4,22.7,00.0,32.2,25.2,11.8,0000.0,0009.40,0002.17,0001.49
2022-03-14 15:21:00,,0829.6,5.00,0.00,23.4,22.8,00.0,32.2,25.2,11.8,0000.0,0009.74,0002.15,0001.48
2022-03-14 15:22:00,,0829.6,5.00,0.00,23.4,22.8,00.0,32.2,25.2,11.8,0000.0,0009.69,0002.16,0001.46
2022-03-14 15:23:00,,0829.6,5.01,0.00,23.4,22.8,00.0,32.2,25.3,11.9,0000.0,0009.38,0002.17,0001.44
2022-03-14 15:24:00,,0829.6,4.98,0.00,23.5,22.8,00.0,32.3,25.3,11.7,0000.0,0009.22,0002.18,0001.43
2022-03-14 15:25:00,,0829.7,5.00,0.00,23.5,22.8,00.0,32.3,25.3,11.8,0000.0,0009.33,0002.22,0001.43
2022-03-14 15:26:00,,0829.6,5.00,0.00,23.5,22.9,00.0,32.3,25.3,11.7,0000.0,0009.45,0002.26,0001.43
2022-03-14 15:27:00,,0829.7,5.00,0.00,23.5,22.9,00.0,32.3,25.4,11.9,0000.0,0008.95,0002.33,0001.43
2022-03-14 15:28:00,,0829.7,5.00,0.00,23.6,22.9,00.0,32.3,25.4,12.0,0000.0,0006.64,0002.35,0001.42
2022-03-14 15:29:00,,0829.7,5.00,0.00,23.6,22.9,00.0,32.4,25.4,12.1,0000.0,0005.71,0002.36,0001.41
2022-03-14 15:30:00,,0829.8,5.00,0.00,23.6,22.9,00.0,32.4,25.5,12.0,0000.0,0005.90,0002.40,0001.40
2022-03-14 15:31:00,,0829.8,4.99,0.00,23.6,23.0,00.0,32.4,25.5,12.0,0000.0,0005.68,0002.40,0001.38
2022-03-14 15:32:00,,0829.8,4.99,0.00,23.6,23.0,00.0,32.4,25.5,12.2,0000.0,0005.72,0002.38,0001.38
2022-03-14 15:33:00,,0829.8,5.00,0.00,23.6,23.0,00.0,32.4,25.5,12.2,0000.0,0006.31,0002.37,0001.37
2022-03-14 15:34:00,,0829.8,5.00,0.00,23.7,23.0,00.0,32.5,25.5,12.3,0000.0,0006.30,0002.44,0001.37
2022-03-14 15:35:00,,0829.8,5.01,0.00,23.7,23.0,00.0,32.5,25.5,12.1,0000.0,0006.20,0002.40,0001.35
2022-03-14 15:36:00,,0829.8,5.00,0.00,23.7,23.1,00.0,32.5,25.6,12.0,0000.0,0006.07,0002.36,0001.34
2022-03-14 15:37:00,,0829.8,5.00,0.00,23.7,23.1,00.0,32.5,25.6,12.1,0000.0,0005.85,0002.33,0001.33
2022-03-14 15:38:00,,0829.9,4.99,0.00,23.7,23.1,00.0,32.5,25.6,11.9,0000.0,0005.62,0002.27,0001.32
2022-03-14 15:39:00,,0829.8,5.02,0.00,23.8,23.1,00.0,32.6,25.6,11.9,0000.0,0005.66,0002.23,0001.30
2022-03-14 15:40:00,,0829.9,5.00,0.00,23.8,23.1,00.0,32.6,25.6,11.6,0000.0,0006.15,0002.25,0001.29
2022-03-14 15:41:00,,0829.9,5.01,0.00,23.8,23.2,00.0,32.6,25.7,11.6,0000.0,0006.43,0002.28,0001.29
2022-03-14 15:42:00,,0830.0,5.00,0.00,23.8,23.2,00.0,32.6,25.7,11.6,0000.0,0006.28,0002.24,0001.29
2022-03-14 15:43:00,,0830.0,5.01,0.00,23.9,23.2,00.0,32.7,25.7,11.8,0000.0,0006.26,0002.22,0001.29
2022-03-14 15:44:00,,0830.0,4.98,0.00,23.9,23.2,00.0,32.7,25.7,11.6,0000.0,0005.64,0002.24,0001.30
2022-03-14 15:45:00,,0830.0,5.01,0.00,23.9,23.2,00.0,32.7,25.7,11.5,0000.0,0005.99,0002.21,0001.32
2022-03-14 15:46:00,,0830.0,5.00,0.00,23.9,23.3,00.0,32.7,25.8,11.9,0000.0,0006.83,0002.30,0001.33
2022-03-14 15:47:00,,0830.0,5.01,0.00,23.9,23.3,00.0,32.7,25.8,11.8,0000.0,0006.97,0002.32,0001.34
2022-03-14 15:48:00,,0830.0,4.99,0.00,24.0,23.3,00.0,32.7,25.8,11.6,0000.0,0006.96,0002.30,0001.33
2022-03-14 15:49:00,,0830.0,5.00,0.00,24.0,23.3,00.0,32.8,25.9,11.7,0000.0,0007.09,0002.30,0001.33
2022-03-14 15:50:00,,0830.1,5.01,0.00,24.0,23.3,00.0,32.8,25.9,11.6,0000.0,0007.33,0002.36,0001.34
2022-03-14 15:51:00,,0830.1,5.01,0.00,24.0,23.3,00.0,32.8,25.9,11.5,0000.0,0006.83,0002.34,0001.34
2022-03-14 15:52:00,,0830.1,5.00,0.00,24.0,23.3,00.0,32.8,25.9,11.4,0000.0,0006.48,0002.30,0001.34
2022-03-14 15:53:00,,0830.0,4.98,0.00,24.0,23.4,00.0,32.8,26.0,11.5,0000.0,0006.39,0002.28,0001.34
2022-03-14 15:54:00,,0830.0,5.01,0.00,24.1,23.4,00.0,32.9,26.0,11.5,0000.0,0005.92,0002.29,0001.35
2022-03-14 15:55:00,,0830.1,5.01,0.00,24.1,23.4,00.0,32.9,26.0,11.6,0000.0,0005.68,0002.32,0001.35
2022-03-14 15:56:00,,0830.1,5.01,0.00,24.1,23.4,00.0,32.9,26.0,11.6,0000.0,0005.38,0002.33,0001.35
2022-03-14 15:57:00,,0830.1,4.98,0.00,24.1,23.4,00.0,32.9,26.0,11.5,0000.0,0004.44,0002.28,0001.36
2022-03-14 15:58:00,,0830.1,5.00,0.00,24.1,23.4,00.0,32.9,26.1,11.4,0000.0,0004.28,0002.22,0001.37
2022-03-14 15:59:00,,0830.1,5.01,0.00,24.2,23.4,00.0,33.0,26.1,11.4,0000.0,0004.20,0002.24,0001.38
